Tracking 21612 objects as of 19-Oct-2020
HD Live streaming from Space Station
objects crossing your sky now

BREEZE-M R/B

Track BREEZE-M R/B now!


NORAD ID: 42750
Int'l Code: 2017-032B
Perigee: 1,796.4 km
Apogee: 34,465.4 km
Inclination: 31.3 °
Period: 636.2 minutes
Semi major axis: 24501 km
RCS: Unknown
Launch date: June 8, 2017
Source: Commonwealth of Independent States (former USSR) (CIS)
Launch site: TYURATAM MISSILE AND SPACE COMPLEX (TTMTR)

Note: This is a ROCKET BODY
aabbcc
Your satellite tracking list
Your tracking list is empty




NASA's NSSDC Master Catalog

Two Line Element Set (TLE):
1 42750U 17032B   20292.39159485 -.00000104  00000-0  00000+0 0  9995
2 42750  31.3198   9.9058 6666625 128.5601 312.3024  2.26361650 27843
Source of the keplerian elements: AFSPC